Year,Month,Day,Hour,Minute,Value (Times are PST for temperature in C)
2016,09,20,00,00,11.40
2016,09,20,00,01,11.40
2016,09,20,00,02,11.40
2016,09,20,00,03,11.40
2016,09,20,00,04,11.40
2016,09,20,00,05,11.40
2016,09,20,00,06,11.40
2016,09,20,00,07,11.40
2016,09,20,00,08,11.40
2016,09,20,00,09,11.40
2016,09,20,00,10,11.40
2016,09,20,00,11,11.40
2016,09,20,00,12,11.40
2016,09,20,00,13,11.40
2016,09,20,00,14,11.40
2016,09,20,00,15,11.40
2016,09,20,00,16,11.40
2016,09,20,00,17,11.40
2016,09,20,00,18,11.40
2016,09,20,00,19,11.40
2016,09,20,00,20,11.40
2016,09,20,00,21,11.40
2016,09,20,00,22,11.40
2016,09,20,00,23,11.40
2016,09,20,00,24,11.40
2016,09,20,00,25,11.40
2016,09,20,00,26,11.40
2016,09,20,00,27,11.40
2016,09,20,00,28,11.40
2016,09,20,00,29,11.40
2016,09,20,00,30,11.40
2016,09,20,00,31,11.40
2016,09,20,00,32,11.40
2016,09,20,00,33,11.40
2016,09,20,00,34,11.40
2016,09,20,00,35,11.40
2016,09,20,00,36,11.40
2016,09,20,00,37,11.40
2016,09,20,00,38,11.40
2016,09,20,00,39,11.40
2016,09,20,00,40,11.40
2016,09,20,00,41,11.40
2016,09,20,00,42,11.40
2016,09,20,00,43,11.40
2016,09,20,00,44,11.40
2016,09,20,00,45,11.40
2016,09,20,00,46,11.40
2016,09,20,00,47,11.40
2016,09,20,00,48,11.40
2016,09,20,00,49,11.40
2016,09,20,00,50,11.40
2016,09,20,00,51,11.40
2016,09,20,00,52,11.40
2016,09,20,00,53,11.40
2016,09,20,00,54,11.40
2016,09,20,00,55,11.40
2016,09,20,00,56,11.40
2016,09,20,00,57,11.40
2016,09,20,00,58,11.40
2016,09,20,00,59,11.40
2016,09,20,01,00,11.40
2016,09,20,01,01,11.40
2016,09,20,01,02,11.40
2016,09,20,01,03,11.40
2016,09,20,01,04,11.40
2016,09,20,01,05,11.40
2016,09,20,01,06,11.40
2016,09,20,01,07,11.40
2016,09,20,01,08,11.40
2016,09,20,01,09,11.40
2016,09,20,01,10,11.40
2016,09,20,01,11,11.40
2016,09,20,01,12,11.40
2016,09,20,01,13,11.40
2016,09,20,01,14,11.40
2016,09,20,01,15,11.40
2016,09,20,01,16,11.40
2016,09,20,01,17,11.40
2016,09,20,01,18,11.40
2016,09,20,01,19,11.40
2016,09,20,01,20,11.40
2016,09,20,01,21,11.40
2016,09,20,01,22,11.40
2016,09,20,01,23,11.40
2016,09,20,01,24,11.40
2016,09,20,01,25,11.40
2016,09,20,01,26,11.40
2016,09,20,01,27,11.40
2016,09,20,01,28,11.40
2016,09,20,01,29,11.40
2016,09,20,01,30,11.40
2016,09,20,01,31,11.40
2016,09,20,01,32,11.40
2016,09,20,01,33,11.40
2016,09,20,01,34,11.40
2016,09,20,01,35,11.40
2016,09,20,01,36,11.40
2016,09,20,01,37,11.40
2016,09,20,01,38,11.40
2016,09,20,01,39,11.40
2016,09,20,01,40,11.40
2016,09,20,01,41,11.40
2016,09,20,01,42,11.40
2016,09,20,01,43,11.40
2016,09,20,01,44,11.40
2016,09,20,01,45,11.40
2016,09,20,01,46,11.40
2016,09,20,01,47,11.40
2016,09,20,01,48,11.40
2016,09,20,01,49,11.40
2016,09,20,01,50,11.40
2016,09,20,01,51,11.40
2016,09,20,01,52,11.40
2016,09,20,01,53,11.40
2016,09,20,01,54,11.40
2016,09,20,01,55,11.40
2016,09,20,01,56,11.30
2016,09,20,01,57,11.30
2016,09,20,01,58,11.30
2016,09,20,01,59,11.30
2016,09,20,02,00,11.30
2016,09,20,02,01,11.30
2016,09,20,02,02,11.30
2016,09,20,02,03,11.30
2016,09,20,02,04,11.30
2016,09,20,02,05,11.30
2016,09,20,02,06,11.30
2016,09,20,02,07,11.30
2016,09,20,02,08,11.30
2016,09,20,02,09,11.30
2016,09,20,02,10,11.30
2016,09,20,02,11,11.30
2016,09,20,02,12,11.30
2016,09,20,02,13,11.30
2016,09,20,02,14,11.30
2016,09,20,02,15,11.30
2016,09,20,02,16,11.30
2016,09,20,02,17,11.30
2016,09,20,02,18,11.30
2016,09,20,02,19,11.30
2016,09,20,02,20,11.30
2016,09,20,02,21,11.30
2016,09,20,02,22,11.30
2016,09,20,02,23,11.30
2016,09,20,02,24,11.30
2016,09,20,02,25,11.30
2016,09,20,02,26,11.30
2016,09,20,02,27,11.30
2016,09,20,02,28,11.30
2016,09,20,02,29,11.30
2016,09,20,02,30,11.30
2016,09,20,02,31,11.30
2016,09,20,02,32,11.30
2016,09,20,02,33,11.30
2016,09,20,02,34,11.30
2016,09,20,02,35,11.30
2016,09,20,02,36,11.20
2016,09,20,02,37,11.20
2016,09,20,02,38,11.20
2016,09,20,02,39,11.20
2016,09,20,02,40,11.20
2016,09,20,02,41,11.20
2016,09,20,02,42,11.20
2016,09,20,02,43,11.20
2016,09,20,02,44,11.20
2016,09,20,02,45,11.20
2016,09,20,02,46,11.20
2016,09,20,02,47,11.20
2016,09,20,02,48,11.20
2016,09,20,02,49,11.20
2016,09,20,02,50,11.20
2016,09,20,02,51,11.20
2016,09,20,02,52,11.20
2016,09,20,02,53,11.20
2016,09,20,02,54,11.20
2016,09,20,02,55,11.20
2016,09,20,02,56,11.20
2016,09,20,02,57,11.20
2016,09,20,02,58,11.20
2016,09,20,02,59,11.20
2016,09,20,03,00,11.20
2016,09,20,03,01,11.20
2016,09,20,03,02,11.20
2016,09,20,03,03,11.20
2016,09,20,03,04,11.20
2016,09,20,03,05,11.20
2016,09,20,03,06,11.20
2016,09,20,03,07,11.20
2016,09,20,03,08,11.20
2016,09,20,03,09,11.20
2016,09,20,03,10,11.20
2016,09,20,03,11,11.20
2016,09,20,03,12,11.10
2016,09,20,03,13,11.10
2016,09,20,03,14,11.10
2016,09,20,03,15,11.10
2016,09,20,03,16,11.10
2016,09,20,03,17,11.10
2016,09,20,03,18,11.10
2016,09,20,03,19,11.10
2016,09,20,03,20,11.10
2016,09,20,03,21,11.10
2016,09,20,03,22,11.10
2016,09,20,03,23,11.10
2016,09,20,03,24,11.10
2016,09,20,03,25,11.10
2016,09,20,03,26,11.10
2016,09,20,03,27,11.10
2016,09,20,03,28,11.10
2016,09,20,03,29,11.10
2016,09,20,03,30,11.10
2016,09,20,03,31,11.10
2016,09,20,03,32,11.10
2016,09,20,03,33,11.10
2016,09,20,03,34,11.10
2016,09,20,03,35,11.10
2016,09,20,03,36,11.10
2016,09,20,03,37,11.10
2016,09,20,03,38,11.10
2016,09,20,03,39,11.10
2016,09,20,03,40,11.10
2016,09,20,03,41,11.10
2016,09,20,03,42,11.10
2016,09,20,03,43,11.10
2016,09,20,03,44,11.10
2016,09,20,03,45,11.10
2016,09,20,03,46,11.10
2016,09,20,03,47,11.10
2016,09,20,03,48,11.10
2016,09,20,03,49,11.10
2016,09,20,03,50,11.10
2016,09,20,03,51,11.10
2016,09,20,03,52,11.10
2016,09,20,03,53,11.10
2016,09,20,03,54,11.10
2016,09,20,03,55,11.10
2016,09,20,03,56,11.10
2016,09,20,03,57,11.10
2016,09,20,03,58,11.10
2016,09,20,03,59,11.10
2016,09,20,04,00,11.10
2016,09,20,04,01,11.10
2016,09,20,04,02,11.10
2016,09,20,04,03,11.10
2016,09,20,04,04,11.10
2016,09,20,04,05,11.10
2016,09,20,04,06,11.10
2016,09,20,04,07,11.10
2016,09,20,04,08,11.10
2016,09,20,04,09,11.10
2016,09,20,04,10,11.10
2016,09,20,04,11,11.10
2016,09,20,04,12,11.10
2016,09,20,04,13,11.10
2016,09,20,04,14,11.10
2016,09,20,04,15,11.10
2016,09,20,04,16,11.00
2016,09,20,04,17,11.10
2016,09,20,04,18,11.00
2016,09,20,04,19,11.00
2016,09,20,04,20,11.00
2016,09,20,04,21,11.10
2016,09,20,04,22,11.00
2016,09,20,04,23,11.00
2016,09,20,04,24,11.00
2016,09,20,04,25,11.00
2016,09,20,04,26,11.00
2016,09,20,04,27,11.00
2016,09,20,04,28,11.00
2016,09,20,04,29,11.00
2016,09,20,04,30,11.00
2016,09,20,04,31,11.00
2016,09,20,04,32,11.00
2016,09,20,04,33,11.00
2016,09,20,04,34,11.00
2016,09,20,04,35,11.00
2016,09,20,04,36,11.00
2016,09,20,04,37,11.00
2016,09,20,04,38,11.00
2016,09,20,04,39,11.00
2016,09,20,04,40,11.00
2016,09,20,04,41,11.00
2016,09,20,04,42,11.00
2016,09,20,04,43,11.00
2016,09,20,04,44,11.00
2016,09,20,04,45,11.00
2016,09,20,04,46,11.00
2016,09,20,04,47,11.00
2016,09,20,04,48,11.00
2016,09,20,04,49,11.00
2016,09,20,04,50,11.00
2016,09,20,04,51,11.00
2016,09,20,04,52,11.00
2016,09,20,04,53,11.00
2016,09,20,04,54,11.00
2016,09,20,04,55,11.00
2016,09,20,04,56,11.00
2016,09,20,04,57,10.90
2016,09,20,04,58,11.00
2016,09,20,04,59,11.00
2016,09,20,05,00,11.00
2016,09,20,05,01,11.00
2016,09,20,05,02,11.00
2016,09,20,05,03,11.00
2016,09,20,05,04,11.00
2016,09,20,05,05,10.90
2016,09,20,05,06,11.00
2016,09,20,05,07,11.00
2016,09,20,05,08,10.90
2016,09,20,05,09,10.90
2016,09,20,05,10,10.90
2016,09,20,05,11,10.90
2016,09,20,05,12,10.90
2016,09,20,05,13,10.90
2016,09,20,05,14,10.90
2016,09,20,05,15,10.90
2016,09,20,05,16,10.90
2016,09,20,05,17,10.90
2016,09,20,05,18,10.90
2016,09,20,05,19,10.90
2016,09,20,05,20,10.90
2016,09,20,05,21,10.90
2016,09,20,05,22,10.90
2016,09,20,05,23,10.90
2016,09,20,05,24,10.90
2016,09,20,05,25,10.90
2016,09,20,05,26,10.90
2016,09,20,05,27,10.90
2016,09,20,05,28,10.90
2016,09,20,05,29,10.90
2016,09,20,05,30,10.90
2016,09,20,05,31,10.80
2016,09,20,05,32,10.80
2016,09,20,05,33,10.80
2016,09,20,05,34,10.80
2016,09,20,05,35,10.80
2016,09,20,05,36,10.80
2016,09,20,05,37,10.80
2016,09,20,05,38,10.80
2016,09,20,05,39,10.80
2016,09,20,05,40,10.80
2016,09,20,05,41,10.80
2016,09,20,05,42,10.80
2016,09,20,05,43,10.80
2016,09,20,05,44,10.80
2016,09,20,05,45,10.80
2016,09,20,05,46,10.80
2016,09,20,05,47,10.80
2016,09,20,05,48,10.80
2016,09,20,05,49,10.80
2016,09,20,05,50,10.80
2016,09,20,05,51,10.70
2016,09,20,05,52,10.70
2016,09,20,05,53,10.70
2016,09,20,05,54,10.70
2016,09,20,05,55,10.70
2016,09,20,05,56,10.70
2016,09,20,05,57,10.70
2016,09,20,05,58,10.70
2016,09,20,05,59,10.70
2016,09,20,06,00,10.70
2016,09,20,06,01,10.60
2016,09,20,06,02,10.60
2016,09,20,06,03,10.60
2016,09,20,06,04,10.60
2016,09,20,06,05,10.60
2016,09,20,06,06,10.60
2016,09,20,06,07,10.60
2016,09,20,06,08,10.50
2016,09,20,06,09,10.50
2016,09,20,06,10,10.50
2016,09,20,06,11,10.50
2016,09,20,06,12,10.50
2016,09,20,06,13,10.40
2016,09,20,06,14,10.40
2016,09,20,06,15,10.40
2016,09,20,06,16,10.40
2016,09,20,06,17,10.40
2016,09,20,06,18,10.30
2016,09,20,06,19,10.30
2016,09,20,06,20,10.30
2016,09,20,06,21,10.30
2016,09,20,06,22,10.30
2016,09,20,06,23,10.30
2016,09,20,06,24,10.30
2016,09,20,06,25,10.30
2016,09,20,06,26,10.30
2016,09,20,06,27,10.30
2016,09,20,06,28,10.30
2016,09,20,06,29,10.30
2016,09,20,06,30,10.20
2016,09,20,06,31,10.20
2016,09,20,06,32,10.20
2016,09,20,06,33,10.20
2016,09,20,06,34,10.20
2016,09,20,06,35,10.20
2016,09,20,06,36,10.20
2016,09,20,06,37,10.20
2016,09,20,06,38,10.20
2016,09,20,06,39,10.20
2016,09,20,06,40,10.20
2016,09,20,06,41,10.20
2016,09,20,06,42,10.20
2016,09,20,06,43,10.20
2016,09,20,06,44,10.20
2016,09,20,06,45,10.20
2016,09,20,06,46,10.20
2016,09,20,06,47,10.20
2016,09,20,06,48,10.20
2016,09,20,06,49,10.20
2016,09,20,06,50,10.20
2016,09,20,06,51,10.20
2016,09,20,06,52,10.20
2016,09,20,06,53,10.20
2016,09,20,06,54,10.20
2016,09,20,06,55,10.20
2016,09,20,06,56,10.20
2016,09,20,06,57,10.20
2016,09,20,06,58,10.20
2016,09,20,06,59,10.20
2016,09,20,07,00,10.20
2016,09,20,07,01,10.20
2016,09,20,07,02,10.20
2016,09,20,07,03,10.20
2016,09,20,07,04,10.20
2016,09,20,07,05,10.20
2016,09,20,07,06,10.20
2016,09,20,07,07,10.30
2016,09,20,07,08,10.30
2016,09,20,07,09,10.30
2016,09,20,07,10,10.30
2016,09,20,07,11,10.30
2016,09,20,07,12,10.30
2016,09,20,07,13,10.30
2016,09,20,07,14,10.30
2016,09,20,07,15,10.30
2016,09,20,07,16,10.30
2016,09,20,07,17,10.30
2016,09,20,07,18,10.30
2016,09,20,07,19,10.30
2016,09,20,07,20,10.30
2016,09,20,07,21,10.30
2016,09,20,07,22,10.30
2016,09,20,07,23,10.40
2016,09,20,07,24,10.40
2016,09,20,07,25,10.40
2016,09,20,07,26,10.40
2016,09,20,07,27,10.40
2016,09,20,07,28,10.40
2016,09,20,07,29,10.40
2016,09,20,07,30,10.40
2016,09,20,07,31,10.40
2016,09,20,07,32,10.40
2016,09,20,07,33,10.40
2016,09,20,07,34,10.50
2016,09,20,07,35,10.50
2016,09,20,07,36,10.50
2016,09,20,07,37,10.50
2016,09,20,07,38,10.50
2016,09,20,07,39,10.50
2016,09,20,07,40,10.50
2016,09,20,07,41,10.60
2016,09,20,07,42,10.60
2016,09,20,07,43,10.60
2016,09,20,07,44,10.60
2016,09,20,07,45,10.60
2016,09,20,07,46,10.60
2016,09,20,07,47,10.60
2016,09,20,07,48,10.60
2016,09,20,07,49,10.60
2016,09,20,07,50,10.60
2016,09,20,07,51,10.70
2016,09,20,07,52,10.70
2016,09,20,07,53,10.70
2016,09,20,07,54,10.70
2016,09,20,07,55,10.70
2016,09,20,07,56,10.70
2016,09,20,07,57,10.70
2016,09,20,07,58,10.70
2016,09,20,07,59,10.70
2016,09,20,08,00,10.70
2016,09,20,08,01,10.70
2016,09,20,08,02,10.70
2016,09,20,08,03,10.70
2016,09,20,08,04,10.70
2016,09,20,08,05,10.80
2016,09,20,08,06,10.80
2016,09,20,08,07,10.80
2016,09,20,08,08,10.80
2016,09,20,08,09,10.80
2016,09,20,08,10,10.80
2016,09,20,08,11,10.80
2016,09,20,08,12,10.80
2016,09,20,08,13,10.80
2016,09,20,08,14,10.80
2016,09,20,08,15,10.80
2016,09,20,08,16,10.80
2016,09,20,08,17,10.80
2016,09,20,08,18,10.80
2016,09,20,08,19,10.80
2016,09,20,08,20,10.80
2016,09,20,08,21,10.90
2016,09,20,08,22,10.90
2016,09,20,08,23,10.90
2016,09,20,08,24,10.90
2016,09,20,08,25,10.90
2016,09,20,08,26,10.90
2016,09,20,08,27,10.90
2016,09,20,08,28,10.90
2016,09,20,08,29,10.90
2016,09,20,08,30,10.90
2016,09,20,08,31,10.90
2016,09,20,08,32,11.00
2016,09,20,08,33,11.00
2016,09,20,08,34,11.00
2016,09,20,08,35,11.00
2016,09,20,08,36,11.00
2016,09,20,08,37,11.10
2016,09,20,08,38,11.10
2016,09,20,08,39,11.10
2016,09,20,08,40,11.10
2016,09,20,08,41,11.10
2016,09,20,08,42,11.10
2016,09,20,08,43,11.20
2016,09,20,08,44,11.20
2016,09,20,08,45,11.20
2016,09,20,08,46,11.20
2016,09,20,08,47,11.20
2016,09,20,08,48,11.20
2016,09,20,08,49,11.20
2016,09,20,08,50,11.20
2016,09,20,08,51,11.30
2016,09,20,08,52,11.30
2016,09,20,08,53,11.30
2016,09,20,08,54,11.30
2016,09,20,08,55,11.40
2016,09,20,08,56,11.40
2016,09,20,08,57,11.40
2016,09,20,08,58,11.50
2016,09,20,08,59,11.50
2016,09,20,09,00,11.60
2016,09,20,09,01,11.60
2016,09,20,09,02,11.60
2016,09,20,09,03,11.60
2016,09,20,09,04,11.60
2016,09,20,09,05,11.70
2016,09,20,09,06,11.70
2016,09,20,09,07,11.60
2016,09,20,09,08,11.60
2016,09,20,09,09,11.60
2016,09,20,09,10,11.50
2016,09,20,09,11,11.50
2016,09,20,09,12,11.60
2016,09,20,09,13,11.60
2016,09,20,09,14,11.50
2016,09,20,09,15,11.60
2016,09,20,09,16,11.50
2016,09,20,09,17,11.50
2016,09,20,09,18,11.50
2016,09,20,09,19,11.50
2016,09,20,09,20,11.50
2016,09,20,09,21,11.50
2016,09,20,09,22,11.50
2016,09,20,09,23,11.60
2016,09,20,09,24,11.60
2016,09,20,09,25,11.60
2016,09,20,09,26,11.60
2016,09,20,09,27,11.60
2016,09,20,09,28,11.60
2016,09,20,09,29,11.60
2016,09,20,09,30,11.60
2016,09,20,09,31,11.60
2016,09,20,09,32,11.70
2016,09,20,09,33,11.70
2016,09,20,09,34,11.70
2016,09,20,09,35,11.70
2016,09,20,09,36,11.70
2016,09,20,09,37,11.70
2016,09,20,09,38,11.70
2016,09,20,09,39,11.60
2016,09,20,09,40,11.60
2016,09,20,09,41,11.60
2016,09,20,09,42,11.60
2016,09,20,09,43,11.60
2016,09,20,09,44,11.60
2016,09,20,09,45,11.60
2016,09,20,09,46,11.60
2016,09,20,09,47,11.70
2016,09,20,09,48,11.70
2016,09,20,09,49,11.70
2016,09,20,09,50,11.70
2016,09,20,09,51,11.70
2016,09,20,09,52,11.80
2016,09,20,09,53,11.80
2016,09,20,09,54,11.80
2016,09,20,09,55,11.80
2016,09,20,09,56,11.80
2016,09,20,09,57,11.80
2016,09,20,09,58,11.80
2016,09,20,09,59,11.90
2016,09,20,10,00,11.90
2016,09,20,10,01,11.90
2016,09,20,10,02,11.90
2016,09,20,10,03,11.90
2016,09,20,10,04,11.90
2016,09,20,10,05,11.90
2016,09,20,10,06,11.90
2016,09,20,10,07,11.90
2016,09,20,10,08,11.90
2016,09,20,10,09,11.90
2016,09,20,10,10,11.90
2016,09,20,10,11,11.90
2016,09,20,10,12,11.90
2016,09,20,10,13,11.90
2016,09,20,10,14,11.90
2016,09,20,10,15,11.90
2016,09,20,10,16,12.00
2016,09,20,10,17,12.00
2016,09,20,10,18,12.00
2016,09,20,10,19,12.10
2016,09,20,10,20,12.10
2016,09,20,10,21,12.10
2016,09,20,10,22,12.10
2016,09,20,10,23,12.10
2016,09,20,10,24,12.10
2016,09,20,10,25,12.10
2016,09,20,10,26,12.10
2016,09,20,10,27,12.20
2016,09,20,10,28,12.20
2016,09,20,10,29,12.30
2016,09,20,10,30,12.40
2016,09,20,10,31,12.50
2016,09,20,10,32,12.60
2016,09,20,10,33,12.60
2016,09,20,10,34,12.60
2016,09,20,10,35,12.70
2016,09,20,10,36,12.70
2016,09,20,10,37,12.80
2016,09,20,10,38,12.90
2016,09,20,10,39,12.90
2016,09,20,10,40,13.00
2016,09,20,10,41,13.10
2016,09,20,10,42,13.10
2016,09,20,10,43,13.20
2016,09,20,10,44,13.20
2016,09,20,10,45,13.30
2016,09,20,10,46,13.30
2016,09,20,10,47,13.30
2016,09,20,10,48,13.40
2016,09,20,10,49,13.40
2016,09,20,10,50,13.30
2016,09,20,10,51,13.30
2016,09,20,10,52,13.30
2016,09,20,10,53,13.30
2016,09,20,10,54,13.30
2016,09,20,10,55,13.30
2016,09,20,10,56,13.30
2016,09,20,10,57,13.40
2016,09,20,10,58,13.40
2016,09,20,10,59,13.50
2016,09,20,11,00,13.50
2016,09,20,11,01,13.60
2016,09,20,11,02,13.60
2016,09,20,11,03,13.60
2016,09,20,11,04,13.60
2016,09,20,11,05,13.70
2016,09,20,11,06,13.70
2016,09,20,11,07,13.70
2016,09,20,11,08,13.60
2016,09,20,11,09,13.60
2016,09,20,11,10,13.60
2016,09,20,11,11,13.60
2016,09,20,11,12,13.60
2016,09,20,11,13,13.60
2016,09,20,11,14,13.70
2016,09,20,11,15,13.70
2016,09,20,11,16,13.80
2016,09,20,11,17,13.80
2016,09,20,11,18,13.80
2016,09,20,11,19,13.80
2016,09,20,11,20,13.90
2016,09,20,11,21,13.90
2016,09,20,11,22,13.90
2016,09,20,11,23,13.90
2016,09,20,11,24,14.00
2016,09,20,11,25,14.00
2016,09,20,11,26,14.00
2016,09,20,11,27,14.10
2016,09,20,11,28,14.10
2016,09,20,11,29,14.10
2016,09,20,11,30,14.20
2016,09,20,11,31,14.20
2016,09,20,11,32,14.20
2016,09,20,11,33,14.30
2016,09,20,11,34,14.40
2016,09,20,11,35,14.50
2016,09,20,11,36,14.50
2016,09,20,11,37,14.50
2016,09,20,11,38,14.50
2016,09,20,11,39,14.50
2016,09,20,11,40,14.50
2016,09,20,11,41,14.40
2016,09,20,11,42,14.40
2016,09,20,11,43,14.40
2016,09,20,11,44,14.40
2016,09,20,11,45,14.50
2016,09,20,11,46,14.50
2016,09,20,11,47,14.60
2016,09,20,11,48,14.70
2016,09,20,11,49,14.70
2016,09,20,11,50,14.70
2016,09,20,11,51,14.80
2016,09,20,11,52,14.80
2016,09,20,11,53,14.80
2016,09,20,11,54,14.90
2016,09,20,11,55,14.90
2016,09,20,11,56,14.80
2016,09,20,11,57,14.80
2016,09,20,11,58,14.80
2016,09,20,11,59,14.80
2016,09,20,12,00,14.70
2016,09,20,12,01,14.70
2016,09,20,12,02,14.70
2016,09,20,12,03,14.60
2016,09,20,12,04,14.60
2016,09,20,12,05,14.60
2016,09,20,12,06,14.60
2016,09,20,12,07,14.50
2016,09,20,12,08,14.50
2016,09,20,12,09,14.60
2016,09,20,12,10,14.60
2016,09,20,12,11,14.70
2016,09,20,12,12,14.70
2016,09,20,12,13,14.80
2016,09,20,12,14,14.70
2016,09,20,12,15,14.70
2016,09,20,12,16,14.70
2016,09,20,12,17,14.60
2016,09,20,12,18,14.70
2016,09,20,12,19,14.70
2016,09,20,12,20,14.70
2016,09,20,12,21,14.80
2016,09,20,12,22,14.80
2016,09,20,12,23,14.80
2016,09,20,12,24,14.80
2016,09,20,12,25,14.90
2016,09,20,12,26,14.90
2016,09,20,12,27,15.00
2016,09,20,12,28,15.00
2016,09,20,12,29,15.00
2016,09,20,12,30,14.90
2016,09,20,12,31,14.90
2016,09,20,12,32,14.90
2016,09,20,12,33,14.90
2016,09,20,12,34,14.90
2016,09,20,12,35,14.90
2016,09,20,12,36,15.00
2016,09,20,12,37,15.00
2016,09,20,12,38,15.10
2016,09,20,12,39,15.10
2016,09,20,12,40,15.10
2016,09,20,12,41,15.10
2016,09,20,12,42,15.00
2016,09,20,12,43,14.90
2016,09,20,12,44,14.90
2016,09,20,12,45,14.90
2016,09,20,12,46,14.90
2016,09,20,12,47,14.90
2016,09,20,12,48,14.90
2016,09,20,12,49,14.90
2016,09,20,12,50,14.90
2016,09,20,12,51,14.90
2016,09,20,12,52,15.00
2016,09,20,12,53,15.00
2016,09,20,12,54,15.10
2016,09,20,12,55,15.10
2016,09,20,12,56,15.10
2016,09,20,12,57,15.20
2016,09,20,12,58,15.20
2016,09,20,12,59,15.30
2016,09,20,13,00,15.40
2016,09,20,13,01,15.40
2016,09,20,13,02,15.50
2016,09,20,13,03,15.50
2016,09,20,13,04,15.50
2016,09,20,13,05,15.50
2016,09,20,13,06,15.40
2016,09,20,13,07,15.40
2016,09,20,13,08,15.30
2016,09,20,13,09,15.30
2016,09,20,13,10,15.30
2016,09,20,13,11,15.20
2016,09,20,13,12,15.10
2016,09,20,13,13,15.10
2016,09,20,13,14,15.10
2016,09,20,13,15,15.20
2016,09,20,13,16,15.20
2016,09,20,13,17,15.10
2016,09,20,13,18,15.10
2016,09,20,13,19,15.10
2016,09,20,13,20,15.10
2016,09,20,13,21,15.10
2016,09,20,13,22,15.10
2016,09,20,13,23,15.10
2016,09,20,13,24,15.20
2016,09,20,13,25,15.20
2016,09,20,13,26,15.20
2016,09,20,13,27,15.30
2016,09,20,13,28,15.30
2016,09,20,13,29,15.40
2016,09,20,13,30,15.40
2016,09,20,13,31,15.40
2016,09,20,13,32,15.40
2016,09,20,13,33,15.40
2016,09,20,13,34,15.40
2016,09,20,13,35,15.30
2016,09,20,13,36,15.20
2016,09,20,13,37,15.20
2016,09,20,13,38,15.20
2016,09,20,13,39,15.20
2016,09,20,13,40,15.20
2016,09,20,13,41,15.30
2016,09,20,13,42,15.30
2016,09,20,13,43,15.40
2016,09,20,13,44,15.50
2016,09,20,13,45,15.60
2016,09,20,13,46,15.70
2016,09,20,13,47,15.80
2016,09,20,13,48,15.90
2016,09,20,13,49,15.90
2016,09,20,13,50,15.90
2016,09,20,13,51,15.90
2016,09,20,13,52,15.90
2016,09,20,13,53,15.90
2016,09,20,13,54,15.80
2016,09,20,13,55,15.80
2016,09,20,13,56,15.80
2016,09,20,13,57,15.80
2016,09,20,13,58,15.70
2016,09,20,13,59,15.60
2016,09,20,14,00,15.60
2016,09,20,14,01,15.60
2016,09,20,14,02,15.60
2016,09,20,14,03,15.60
2016,09,20,14,04,15.60
2016,09,20,14,05,15.60
2016,09,20,14,06,15.60
2016,09,20,14,07,15.60
2016,09,20,14,08,15.60
2016,09,20,14,09,15.60
2016,09,20,14,10,15.60
2016,09,20,14,11,15.70
2016,09,20,14,12,15.70
2016,09,20,14,13,15.70
2016,09,20,14,14,15.80
2016,09,20,14,15,15.80
2016,09,20,14,16,15.80
2016,09,20,14,17,15.80
2016,09,20,14,18,15.80
2016,09,20,14,19,15.80
2016,09,20,14,20,15.80
2016,09,20,14,21,15.80
2016,09,20,14,22,15.80
2016,09,20,14,23,15.80
2016,09,20,14,24,15.80
2016,09,20,14,25,15.90
2016,09,20,14,26,15.90
2016,09,20,14,27,16.00
2016,09,20,14,28,16.00
2016,09,20,14,29,16.00
2016,09,20,14,30,16.00
2016,09,20,14,31,16.00
2016,09,20,14,32,16.00
2016,09,20,14,33,16.00
2016,09,20,14,34,16.00
2016,09,20,14,35,16.10
2016,09,20,14,36,16.10
2016,09,20,14,37,16.10
2016,09,20,14,38,16.20
2016,09,20,14,39,16.20
2016,09,20,14,40,16.20
2016,09,20,14,41,16.30
2016,09,20,14,42,16.30
2016,09,20,14,43,16.30
2016,09,20,14,44,16.30
2016,09,20,14,45,16.30
2016,09,20,14,46,16.30
2016,09,20,14,47,16.30
2016,09,20,14,48,16.30
2016,09,20,14,49,16.30
2016,09,20,14,50,16.30
2016,09,20,14,51,16.30
2016,09,20,14,52,16.30
2016,09,20,14,53,16.30
2016,09,20,14,54,16.30
2016,09,20,14,55,16.30
2016,09,20,14,56,16.20
2016,09,20,14,57,16.20
2016,09,20,14,58,16.20
2016,09,20,14,59,16.20
2016,09,20,15,00,16.20
2016,09,20,15,01,16.20
2016,09,20,15,02,16.20
2016,09,20,15,03,16.20
2016,09,20,15,04,16.20
2016,09,20,15,05,16.20
2016,09,20,15,06,16.20
2016,09,20,15,07,16.20
2016,09,20,15,08,16.20
2016,09,20,15,09,16.20
2016,09,20,15,10,16.20
2016,09,20,15,11,16.20
2016,09,20,15,12,16.20
2016,09,20,15,13,16.20
2016,09,20,15,14,16.20
2016,09,20,15,15,16.30
2016,09,20,15,16,16.30
2016,09,20,15,17,16.30
2016,09,20,15,18,16.30
2016,09,20,15,19,16.30
2016,09,20,15,20,16.30
2016,09,20,15,21,16.30
2016,09,20,15,22,16.30
2016,09,20,15,23,16.30
2016,09,20,15,24,16.30
2016,09,20,15,25,16.30
2016,09,20,15,26,16.30
2016,09,20,15,27,16.30
2016,09,20,15,28,16.30
2016,09,20,15,29,16.30
2016,09,20,15,30,16.30
2016,09,20,15,31,16.40
2016,09,20,15,32,16.40
2016,09,20,15,33,16.40
2016,09,20,15,34,16.40
2016,09,20,15,35,16.40
2016,09,20,15,36,16.40
2016,09,20,15,37,16.50
2016,09,20,15,38,16.50
2016,09,20,15,39,16.50
2016,09,20,15,40,16.50
2016,09,20,15,41,16.50
2016,09,20,15,42,16.50
2016,09,20,15,43,16.50
2016,09,20,15,44,16.60
2016,09,20,15,45,16.60
2016,09,20,15,46,16.50
2016,09,20,15,47,16.50
2016,09,20,15,48,16.50
2016,09,20,15,49,16.60
2016,09,20,15,50,16.60
2016,09,20,15,51,16.60
2016,09,20,15,52,16.60
2016,09,20,15,53,16.60
2016,09,20,15,54,16.60
2016,09,20,15,55,16.60
2016,09,20,15,56,16.60
2016,09,20,15,57,16.60
2016,09,20,15,58,16.60
2016,09,20,15,59,16.60
2016,09,20,16,00,16.60
2016,09,20,16,01,16.60
2016,09,20,16,02,16.70
2016,09,20,16,03,16.70
2016,09,20,16,04,16.70
2016,09,20,16,05,16.70
2016,09,20,16,06,16.70
2016,09,20,16,07,16.70
2016,09,20,16,08,16.70
2016,09,20,16,09,16.70
2016,09,20,16,10,16.70
2016,09,20,16,11,16.70
2016,09,20,16,12,16.70
2016,09,20,16,13,16.70
2016,09,20,16,14,16.70
2016,09,20,16,15,16.70
2016,09,20,16,16,16.70
2016,09,20,16,17,16.70
2016,09,20,16,18,16.70
2016,09,20,16,19,16.70
2016,09,20,16,20,16.70
2016,09,20,16,21,16.70
2016,09,20,16,22,16.70
2016,09,20,16,23,16.70
2016,09,20,16,24,16.70
2016,09,20,16,25,16.70
2016,09,20,16,26,16.80
2016,09,20,16,27,16.80
2016,09,20,16,28,16.80
2016,09,20,16,29,16.80
2016,09,20,16,30,16.80
2016,09,20,16,31,16.80
2016,09,20,16,32,16.80
2016,09,20,16,33,16.80
2016,09,20,16,34,16.80
2016,09,20,16,35,16.80
2016,09,20,16,36,16.80
2016,09,20,16,37,16.90
2016,09,20,16,38,16.90
2016,09,20,16,39,16.90
2016,09,20,16,40,16.90
2016,09,20,16,41,17.00
2016,09,20,16,42,16.90
2016,09,20,16,43,17.00
2016,09,20,16,44,16.90
2016,09,20,16,45,16.90
2016,09,20,16,46,16.90
2016,09,20,16,47,16.90
2016,09,20,16,48,16.90
2016,09,20,16,49,16.90
2016,09,20,16,50,16.90
2016,09,20,16,51,16.90
2016,09,20,16,52,16.90
2016,09,20,16,53,16.90
2016,09,20,16,54,16.90
2016,09,20,16,55,16.90
2016,09,20,16,56,16.90
2016,09,20,16,57,16.90
2016,09,20,16,58,16.90
2016,09,20,16,59,16.90
2016,09,20,17,00,16.90
2016,09,20,17,01,16.90
2016,09,20,17,02,16.80
2016,09,20,17,03,16.80
2016,09,20,17,04,16.80
2016,09,20,17,05,16.80
2016,09,20,17,06,16.80
2016,09,20,17,07,16.80
2016,09,20,17,08,16.80
2016,09,20,17,09,16.80
2016,09,20,17,10,16.80
2016,09,20,17,11,16.80
2016,09,20,17,12,16.80
2016,09,20,17,13,16.80
2016,09,20,17,14,16.80
2016,09,20,17,15,16.80
2016,09,20,17,16,16.80
2016,09,20,17,17,16.80
2016,09,20,17,18,16.80
2016,09,20,17,19,16.80